Weather History for Omak, WA

Change the Weather History Date:

Monday, November 19, 2012

  Actual Average Record
Temperature  
Mean Temperature 48 °F 34 °F  
Max Temperature 54 °F 42 °F 67 °F (1932)
Min Temperature 42 °F 27 °F 5 °F (1955)
Degree Days  
Heating Degree Days 17 31  
Month to date heating degree days 463 510  
Since 1 July heating degree days 999 1170  
Cooling Degree Days 0 0  
Month to date cooling degree days 0 0  
Year to date cooling degree days 629 665  
Moisture  
Dew Point 41 °F    
Average Humidity 82    
Maximum Humidity 92    
Minimum Humidity 71    
Precipitation  
Precipitation 0.37 in 0.06 in 0.52 in (1966)
Month to date precipitation 2.00 1.16  
Year to date precipitation 14.10 11.86  
Sea Level Pressure  
Sea Level Pressure 29.64 in    
Wind  
Wind Speed 12 mph (South)    
Max Wind Speed 29 mph    
Max Gust Speed 39 mph    
Visibility 10 miles    
Events Rain    
T = Trace of Precipitation, MM = Missing Value Source: NWS Daily Summary

Daily Weather History Graph

Daily Weather History Graph

Search for Another Location

Airport:

Trip Planner

Search our weather history database for the weather conditions in past years. The results will help you decide how hot, cold, wet, or windy it might be!

Date:

Astronomy

Nov. 19, 2012 Rise Set
Actual Time 7:12 AM PST 4:13 PM PST
Civil Twilight 6:38 AM PST 4:48 PM PST
Nautical Twilight 5:59 AM PST 5:27 PM PST
Astronomical Twilight 5:22 AM PST 6:04 PM PST
Moon 12:06 PM PST (11/19) 11:00 PM PST (11/19)
Length of Visible Light 10h 10m
Length of Day
9h 01m
Waxing Crescent, 42% of the Moon is Illuminated
Nov 19
Waxing Crescent
Nov 20
First Quarter
Nov 28
Full
Dec 6
Last Quarter
Dec 13
New

Hourly Weather History & Observations

Time (PST) Temp. Windchill Dew Point Humidity Pressure Visibility Wind Dir Wind Speed Gust Speed Precip Events Conditions
12:28 AM 42.8 °F 37.5 °F 39.2 °F 87% 29.72 in 10.0 mi South 9.2 mph - 0.01 in Rain Light Rain
12:53 AM 43.0 °F 36.8 °F 37.9 °F 82% 29.74 in 10.0 mi South 11.5 mph - 0.01 in Rain Light Rain
1:10 AM 42.8 °F 37.0 °F 39.2 °F 87% 29.71 in 10.0 mi SSE 10.4 mph - 0.00 in Rain Light Rain
1:18 AM 42.8 °F 36.2 °F 39.2 °F 87% 29.71 in 10.0 mi SSE 12.7 mph 19.6 mph 0.01 in Rain Light Rain
1:53 AM 44.1 °F 37.4 °F 39.0 °F 82% 29.74 in 10.0 mi SSE 13.8 mph - 0.01 in Rain Light Rain
2:53 AM 44.1 °F 39.0 °F 39.0 °F 82% 29.73 in 10.0 mi South 9.2 mph 20.7 mph 0.00 in   Overcast
3:53 AM 45.0 °F 39.7 °F 39.0 °F 80% 29.71 in 10.0 mi SSE 10.4 mph 21.9 mph N/A   Overcast
4:16 AM 46.4 °F 39.5 °F 39.2 °F 76% 29.68 in 10.0 mi SSE 17.3 mph 25.3 mph N/A   Overcast
4:53 AM 46.0 °F 39.6 °F 39.0 °F 76% 29.70 in 10.0 mi SSE 15.0 mph - N/A   Overcast
5:36 AM 44.6 °F 38.4 °F 39.2 °F 81% 29.68 in 10.0 mi South 12.7 mph - 0.04 in Rain Rain
5:53 AM 45.0 °F 38.9 °F 39.9 °F 82% 29.70 in 9.0 mi SSE 12.7 mph - 0.07 in Rain Light Rain
6:07 AM 44.6 °F 38.8 °F 41.0 °F 87% 29.68 in 10.0 mi SSE 11.5 mph - 0.02 in Rain Rain
6:46 AM 44.6 °F 40.2 °F 41.0 °F 87% 29.68 in 10.0 mi South 8.1 mph - 0.06 in Rain Light Rain
6:53 AM 44.1 °F 40.1 °F 41.0 °F 89% 29.71 in 10.0 mi South 6.9 mph - 0.07 in Rain Light Rain
7:53 AM 44.1 °F 39.5 °F 42.1 °F 93% 29.69 in 6.0 mi South 8.1 mph - 0.07 in Rain Rain
8:29 AM 44.6 °F 40.7 °F 42.8 °F 93% 29.66 in 7.0 mi South 6.9 mph - 0.07 in Rain Rain
8:53 AM 45.0 °F 41.2 °F 42.1 °F 90% 29.67 in 10.0 mi South 6.9 mph - 0.09 in Rain Light Rain
9:53 AM 45.0 °F 41.8 °F 43.0 °F 93% 29.65 in 10.0 mi SSW 5.8 mph - 0.01 in Rain Light Rain
10:53 AM 46.0 °F 41.9 °F 42.1 °F 86% 29.62 in 10.0 mi SSW 8.1 mph - 0.01 in Rain Light Rain
11:53 AM 48.0 °F - 42.1 °F 80% 29.57 in 10.0 mi South 11.5 mph - 0.01 in   Overcast
12:53 PM 48.9 °F - 42.1 °F 77% 29.53 in 10.0 mi SSW 13.8 mph 26.5 mph 0.01 in   Overcast
1:53 PM 51.1 °F - 41.0 °F 68% 29.50 in 10.0 mi South 13.8 mph 24.2 mph 0.00 in Rain Light Rain
2:53 PM 54.0 °F - 39.9 °F 59% 29.49 in 10.0 mi South 23.0 mph 33.4 mph 0.00 in   Overcast
3:53 PM 53.1 °F - 41.0 °F 64% 29.53 in 10.0 mi SSW 12.7 mph 23.0 mph 0.00 in Rain Light Rain
4:53 PM 51.1 °F - 43.0 °F 74% 29.53 in 10.0 mi SSE 15.0 mph - 0.01 in   Mostly Cloudy
5:53 PM 52.0 °F - 43.0 °F 71% 29.55 in 10.0 mi SSE 13.8 mph - 0.00 in   Overcast
6:53 PM 52.0 °F - 43.0 °F 71% 29.54 in 10.0 mi South 11.5 mph - N/A   Overcast
7:53 PM 52.0 °F - 42.1 °F 69% 29.54 in 10.0 mi South 15.0 mph 20.7 mph N/A   Mostly Cloudy
8:53 PM 51.1 °F - 42.1 °F 71% 29.57 in 10.0 mi South 11.5 mph - N/A   Mostly Cloudy
9:53 PM 52.0 °F - 42.1 °F 69% 29.60 in 10.0 mi South 15.0 mph 23.0 mph N/A   Mostly Cloudy
10:53 PM 50.0 °F - 41.0 °F 71% 29.61 in 10.0 mi South 12.7 mph 23.0 mph N/A   Clear
11:53 PM 50.0 °F - 39.9 °F 68% 29.67 in 10.0 mi SE 11.5 mph - N/A   Mostly Cloudy